#timestamp,LO_Frequency,Hit,StdDev 
1686290415.5,286047000.1,N
1686290435.3,286047000.6,N
1686290455.1,286047001.0,N
1686290475.9,286047000.3,N
1686290495.7,286047002.6,N
1686290515.6,286046999.9,N
1686290535.4,286047002.1,N
1686290555.2,286047002.8,N
1686290575.1,286047000.1,N
1686290576.0,286047000.1,N
1686290595.8,286047002.5,N
1686290615.6,286047002.5,N
1686290635.5,286047002.8,N
1686290655.3,286046999.9,N
1686290675.2,286047002.8,N
1686290695.9,286047002.4,N
1686290715.7,286047002.7,N
1686290735.6,286047002.4,N
1686290755.4,286047000.3,N
1686290775.2,286047000.1,N
1686290795.1,286046999.7,N
1686290796.0,286046999.7,N
1686290815.8,286047002.7,N
1686290835.7,286047000.5,N
1686290855.5,286047000.6,N
1686290875.3,286047000.2,N
1686290895.2,286046999.9,N
1686290915.0,286046999.8,N
1686290915.9,286046999.8,N
1686290935.8,286047002.3,N
1686290955.6,286047002.5,N
1686290975.4,286047002.3,N
1686290995.3,286046999.8,N
1686291015.1,286047002.3,N
1686291035.9,286047002.0,N
1686291055.7,286047002.4,N
1686291075.5,286047002.3,N
1686291095.4,286046999.7,N
1686291115.2,286047002.5,N
1686291135.1,286047002.5,N
1686291136.0,286047002.5,N
1686291155.8,286047002.8,N
1686291175.6,286047002.3,N
1686291195.5,286046999.8,N
1686291215.3,286047000.2,N
1686291235.1,286046999.7,N
1686291255.9,286047000.7,N
1686291275.7,286047000.4,N
1686291295.6,286047000.2,N
1686291315.4,286047000.5,N
1686291335.2,286047000.5,N
1686291355.1,286047000.3,N
1686291356.0,286047000.3,N
1686291375.8,286047000.5,N
1686291395.7,286046998.5,N
1686291415.5,286046998.2,N
1686291435.3,286047000.5,N
1686291455.2,286047000.5,N
1686291475.0,286047000.5,N
1686291475.9,286047000.5,N
1686291495.8,286047000.4,N
1686291515.6,286047000.3,N
1686291535.4,286046998.5,N
1686291555.3,286046998.1,N
1686291575.1,286047001.1,N
1686291595.8,286047000.9,N
1686291615.7,286047001.0,N
1686291635.5,286047000.4,N
1686291655.4,286047000.0,N
1686291675.2,286047000.3,N
1686291695.0,286047002.8,N
1686291695.9,286047002.8,N
1686291715.0,286047002.3,N
1686291715.9,286047002.3,N
1686291735.8,286047002.5,N
1686291755.6,286047002.3,N
1686291775.4,286047001.6,N
1686291795.3,286047001.4,N
1686291815.1,286047001.3,N
1686291835.9,286047001.7,N
1686291855.7,286047001.7,N
1686291875.5,286047001.4,N
1686291895.4,286047002.2,N
1686291915.2,286047002.8,N
1686291935.0,286047002.5,N
1686291936.0,286047002.5,N
1686291955.8,286047002.4,N
1686291975.6,286046999.8,N
1686291995.5,286047002.8,N
1686292015.3,286046999.8,N
1686292035.2,286047000.1,N
1686292055.9,286047002.4,N
1686292075.7,286047002.5,N
1686292095.6,286047002.7,N
1686292115.4,286047002.6,N
1686292135.2,286047001.3,N
1686292155.1,286047002.2,N
1686292156.0,286047002.2,N
1686292175.8,286047002.3,N
1686292195.7,286047000.2,N
1686292215.5,286047002.7,Y
1686292235.3,286046998.4,P
1686292255.2,286047001.2,N
1686292275.0,286046998.5,N
1686292275.9,286046998.5,N
1686292295.8,286046998.7,N
1686292315.6,286046998.3,N
1686292335.4,286046998.7,N
1686292355.3,286046998.9,N
1686292405.1,286047000.8,E
1686292415.1,286046998.2,N
1686292416.0,286046998.2,P
1686292435.8,286046998.4,P
1686292455.6,286046999.2,Y
1686292475.5,286047001.0,P
1686292495.3,286047000.7,N
1686292515.1,286047001.0,N
1686292535.9,286047000.9,N
1686292555.7,286047000.8,N
1686292575.6,286047001.2,N
1686292595.4,286047000.1,N
1686292615.2,286047000.8,N
1686292635.1,286047000.6,N
1686292636.0,286047000.6,N
1686292655.8,286046998.2,N
1686292675.7,286047001.2,N
1686292695.5,286047000.4,N
1686292715.3,286046998.5,N
1686292735.2,286047001.2,N
1686292755.9,286047000.3,N
1686292775.7,286047000.0,N
1686292795.6,286047000.5,N
1686292815.4,286047000.2,N
1686292835.2,286047000.9,N
1686292855.1,286047000.8,N
1686292856.0,286047000.8,N
1686292875.8,286046998.1,N
1686292895.7,286047000.8,N
1686292915.5,286047000.8,N
1686292935.3,286047000.7,N
1686292955.2,286047000.2,N
1686292975.0,286047000.6,N
1686292975.9,286047000.6,N
1686292995.7,286046998.4,N
1686293015.6,286046996.9,Y
1686293035.4,286046996.9,P
1686293055.3,286046997.0,N
1686293075.1,286046996.5,N
1686293095.8,286046996.5,N
1686293115.7,286046996.6,N
1686293135.5,286046996.5,N
1686293155.4,286046999.4,N
1686293175.2,286046999.6,N
1686293195.0,286046996.7,N
1686293195.9,286046996.7,N
1686293215.8,286046997.0,N
1686293235.6,286046997.0,N
1686293255.4,286046997.0,N
1686293275.3,286046997.2,N
1686293295.1,286046997.7,N
1686293315.9,286046995.0,Y
1686293335.7,286046996.5,P
1686293355.5,286046999.4,N
1686293375.4,286046999.2,N
1686293395.2,286046996.5,N
1686293415.0,286046996.6,N
1686293416.0,286046996.6,N
1686293435.8,286046997.2,N
1686293455.6,286046997.2,N
1686293475.5,286046997.7,N
1686293495.3,286046997.5,N
1686293515.1,286046997.6,N
1686293535.9,286046997.4,N
1686293555.7,286046994.9,Y
1686293575.6,286046998.9,P
1686293595.4,286046998.4,N
1686293615.2,286047000.9,N
1686293635.1,286047001.2,N
1686293636.0,286047001.2,N
1686293655.8,286046998.7,N
1686293675.7,286046998.3,N
1686293695.5,286046998.9,N
1686293715.3,286046998.4,N
1686293735.2,286046998.8,N
1686293755.0,286046996.6,N
1686293755.9,286046996.6,N
1686293775.7,286046998.8,N
1686293795.6,286046998.4,N
1686293815.4,286046996.9,N
1686293835.3,286046999.6,N
1686293855.1,286046996.9,N
1686293875.8,286046997.2,N
1686293895.7,286046996.9,N
1686293915.5,286046999.1,N
1686293935.3,286046997.8,N
1686293955.2,286046997.1,N
1686293975.0,286046997.8,N
1686293975.9,286046997.8,N
1686293995.8,286046997.6,N
